Regional Weather Roundup
Issued by NWS

Home | Current Version | Previous Version | Text Only | Print | Product List | Glossary On
Versions: 1 2 3 4 5 6 7 8 9 10 11 12 13 14 15 16 17 18 19 20 21 22 23 24 25 26 27 28 29 30 31 32 33 34 35 36 37 38 39 40 41 42 43 44 45 46 47 48 49 50
000
ASUS45 KREV 261710
RWRNV
NEVADA REGIONAL WEATHER ROUNDUP
NATIONAL WEATHER SERVICE RENO NV
1000 AM PDT SUN APR 26 2015

NOTE: "FAIR" INDICATES FEW OR NO CLOUDS BELOW 12,000 FEET WITH NO
SIGNIFICANT WEATHER AND/OR OBSTRUCTIONS TO VISIBILITY.

NVZ001-003-004-261800-
WESTERN NEVADA

CITY           SKY/WX    TMP DP  RH WIND       PRES   REMARKS
RENO           MOSUNNY   50  26  39 NE7       30.16R
CARSON CITY    FAIR      48  28  46 W5        30.15R
MINDEN         FAIR      46  32  57 NW3       30.16
SLIDE MTN        N/A     28  27  93 VRB12       N/A
PYRAMID LAKE     N/A     46 N/A N/A N10         N/A
FALLON         MOSUNNY   50  32  50 N9        30.13S
LOVELOCK       SUNNY     49  34  56 E9        30.14R
HAWTHORNE      SUNNY     52  27  37 NW12G18   30.12S
$$

NVZ002-CAZ072-073-261800-
NORTHERN AND CENTRAL SIERRA

CITY           SKY/WX    TMP DP  RH WIND       PRES   REMARKS
S. LAKE TAHOE  SUNNY     44  28  53 NE5       30.13R
TRUCKEE        MOSUNNY   43  28  56 CALM      30.14R
SQUAW VLY 8000   N/A     32  32 100 E1          N/A
BLUE CANYON    SUNNY     47  29  49 VRB5      30.13R
MAMMOTH LAKES  FAIR      46  21  36 NW12G21   30.11S
BRIDGEPORT     FAIR      41  26  55 SW3       30.09S
$$

NVZ030-031-036-261800-
NORTHERN NEVADA

CITY           SKY/WX    TMP DP  RH WIND       PRES   REMARKS
ELKO           SUNNY     43  21  41 NW9G22    30.08R
WINNEMUCCA     SUNNY     46  28  49 NW10      30.14R
WENDOVER       SUNNY     48  19  32 NW23G33   30.00R
$$

NVZ035-037-261800-
CENTRAL NEVADA

CITY           SKY/WX    TMP DP  RH WIND       PRES   REMARKS
ELY            MOSUNNY   42  23  46 N20G25    30.01S
EUREKA           N/A     42  26  53 N20G26    30.07S
$$

NVZ013-014-261800-
SOUTH CENTRAL NEVADA

CITY           SKY/WX    TMP DP  RH WIND       PRES   REMARKS
TONOPAH        MOSUNNY   49  22  34 N16G28    30.06R
$$

NVZ017-020-022-261800-
SOUTHERN NEVADA

CITY           SKY/WX    TMP DP  RH WIND       PRES   REMARKS
LAS VEGAS      MOSUNNY   65  27  23 NW16G22   29.90R
N. LAS VEGAS   SUNNY     64  24  21 NW28G35   29.91R
NELLIS AFB     NOT AVBL
HENDERSON      SUNNY     62  29  28 N24G32    29.94R
MERCURY        SUNNY     59  25  27 NE14      29.99R
$$


USA.gov is the U.S. government's official web portal to all federal, state and local government web resources and services.